Location: Unspecified
(0.0000°N, 0.0000°E)
Time: 01:28:14
(UTC+00:00)

RS-15 - Pass Details

Date: 16 December 2017
Orbit: 1889 x 2156 km, 64.8° (Epoch: 24 April)

Event Time Altitude Azimuth Distance (km) Brightness Sun altitude
Exits shadow 03:03:35 18° 223° (SW) 3,639 9.3 -38.8°
Drops below altitude 10° 03:07:33 10° 202° (SSW) 4,271 9.9 -37.9°
Sets 03:12:01 0° 187° (S) 5,270 10.6 -36.9°
